ITY2007 RPMD-WAMM

Flight info

Callsign ITY2007
Flight time 1h 12m
Altitude 35000
Route MEGOM1A MEGOM R342 PEDNO/N0476F340 R342 BONDA
Aircraft B738/M-SDE2E3FGHIRWXY/LB1

Departure

Time 2026-04-16 07:03
Airport Francisco Bangoy International Airport (RPMD)

Arrival

Time 2026-04-16 08:16
Airport Sam Ratulangi International Airport (WAMM)
Time Latitude Longitude Altitude Speed Heading
2026-04-16 06:33 7.12881 125.64464 100 ft 0 kts 320°
2026-04-16 06:49 7.12880 125.64464 100 ft 0 kts 320°
2026-04-16 06:54 7.12872 125.64471 100 ft 2 kts 320°
2026-04-16 06:54 7.12862 125.64480 100 ft 2 kts 320°
2026-04-16 06:55 7.12851 125.64489 100 ft 2 kts 319°
2026-04-16 06:55 7.12841 125.64498 100 ft 2 kts 318°
2026-04-16 06:55 7.12831 125.64507 98 ft 2 kts 315°
2026-04-16 06:55 7.12823 125.64516 100 ft 2 kts 308°
2026-04-16 06:56 7.12818 125.64522 99 ft 1 kts 295°
2026-04-16 06:56 7.12816 125.64528 99 ft 1 kts 274°
2026-04-16 06:56 7.12816 125.64534 99 ft 1 kts 250°
2026-04-16 06:56 7.12818 125.64539 99 ft 1 kts 237°
2026-04-16 06:57 7.12821 125.64544 99 ft 1 kts 232°
2026-04-16 06:57 7.12825 125.64548 99 ft 1 kts 230°
2026-04-16 06:57 7.12824 125.64548 99 ft 1 kts 230°
2026-04-16 06:58 7.12808 125.64528 99 ft 7 kts 230°
2026-04-16 06:58 7.12767 125.64479 100 ft 11 kts 230°
2026-04-16 06:58 7.12701 125.64448 100 ft 11 kts 166°
2026-04-16 06:58 7.12641 125.64492 100 ft 10 kts 140°
2026-04-16 06:59 7.12590 125.64535 100 ft 10 kts 141°
2026-04-16 06:59 7.12525 125.64537 99 ft 11 kts 215°
2026-04-16 06:59 7.12462 125.64471 98 ft 14 kts 227°
2026-04-16 06:59 7.12399 125.64397 99 ft 14 kts 229°
2026-04-16 07:00 7.12339 125.64325 99 ft 13 kts 229°
2026-04-16 07:00 7.12280 125.64258 100 ft 13 kts 228°
2026-04-16 07:00 7.12222 125.64193 100 ft 12 kts 228°
2026-04-16 07:01 7.12102 125.64050 102 ft 14 kts 230°
2026-04-16 07:01 7.12039 125.63978 101 ft 14 kts 227°
2026-04-16 07:01 7.11964 125.63891 101 ft 19 kts 230°
2026-04-16 07:01 7.11860 125.63771 100 ft 25 kts 229°
2026-04-16 07:02 7.11759 125.63642 99 ft 21 kts 250°
2026-04-16 07:02 7.11726 125.63537 99 ft 9 kts 199°
2026-04-16 07:02 7.11689 125.63574 99 ft 9 kts 69°
2026-04-16 07:02 7.11710 125.63598 99 ft 0 kts 50°
2026-04-16 07:03 7.11803 125.63707 99 ft 45 kts 49°
2026-04-16 07:03 7.12171 125.64134 101 ft 118 kts 49°
2026-04-16 07:03 7.12867 125.64938 281 ft 174 kts 49°
2026-04-16 07:03 7.13669 125.65858 1343 ft 177 kts 62°
2026-04-16 07:04 7.14066 125.67048 2199 ft 189 kts 84°
2026-04-16 07:04 7.14013 125.68463 2530 ft 216 kts 105°
2026-04-16 07:04 7.13118 125.69736 2695 ft 238 kts 146°
2026-04-16 07:04 7.11502 125.70236 2950 ft 257 kts 179°
2026-04-16 07:05 7.09734 125.69741 3211 ft 277 kts 213°
2026-04-16 07:05 7.08430 125.68335 3913 ft 275 kts 239°
2026-04-16 07:05 7.07389 125.66710 4675 ft 277 kts 237°
2026-04-16 07:05 7.06310 125.65088 5423 ft 279 kts 237°
2026-04-16 07:06 7.05232 125.63457 6176 ft 281 kts 238°
2026-04-16 07:06 7.04148 125.61807 6862 ft 284 kts 238°
2026-04-16 07:06 7.03056 125.60144 7589 ft 285 kts 237°
2026-04-16 07:06 7.01636 125.58739 8267 ft 292 kts 212°
2026-04-16 07:07 6.99854 125.57804 9051 ft 294 kts 208°
2026-04-16 07:07 6.98010 125.56888 9810 ft 297 kts 208°
2026-04-16 07:07 6.96131 125.55959 10383 ft 307 kts 207°
2026-04-16 07:07 6.94136 125.54964 10556 ft 331 kts 207°
2026-04-16 07:08 6.92005 125.53895 10712 ft 352 kts 207°
2026-04-16 07:08 6.89751 125.52761 10861 ft 371 kts 208°
2026-04-16 07:08 6.87408 125.51578 11225 ft 381 kts 208°
2026-04-16 07:08 6.85022 125.50374 11763 ft 385 kts 207°
2026-04-16 07:09 6.82624 125.49154 12364 ft 388 kts 208°
2026-04-16 07:09 6.80225 125.47883 12920 ft 391 kts 208°
2026-04-16 07:09 6.77807 125.46580 13441 ft 396 kts 208°
2026-04-16 07:09 6.75403 125.45286 14014 ft 398 kts 208°
2026-04-16 07:10 6.72950 125.43974 14581 ft 400 kts 208°
2026-04-16 07:10 6.70482 125.42659 15125 ft 402 kts 208°
2026-04-16 07:10 6.67978 125.41331 15668 ft 405 kts 208°
2026-04-16 07:10 6.65470 125.40004 16192 ft 408 kts 208°
2026-04-16 07:11 6.62946 125.38669 16737 ft 410 kts 208°
2026-04-16 07:11 6.60445 125.37345 17250 ft 413 kts 208°
2026-04-16 07:11 6.57889 125.35992 17748 ft 416 kts 208°
2026-04-16 07:11 6.55321 125.34632 18229 ft 418 kts 208°
2026-04-16 07:12 6.52740 125.33264 18635 ft 421 kts 208°
2026-04-16 07:12 6.50134 125.31884 19052 ft 423 kts 208°
2026-04-16 07:12 6.47526 125.30503 19478 ft 425 kts 208°
2026-04-16 07:12 6.44899 125.29113 19871 ft 427 kts 208°
2026-04-16 07:13 6.42260 125.27711 20236 ft 430 kts 208°
2026-04-16 07:13 6.39635 125.26310 20614 ft 432 kts 208°
2026-04-16 07:13 6.36975 125.24888 21013 ft 434 kts 209°
2026-04-16 07:13 6.34303 125.23459 21373 ft 436 kts 209°
2026-04-16 07:14 6.31614 125.22021 21672 ft 440 kts 209°
2026-04-16 07:14 6.28905 125.20574 22022 ft 441 kts 209°
2026-04-16 07:14 6.26190 125.19123 22370 ft 443 kts 208°
2026-04-16 07:14 6.23461 125.17667 22684 ft 446 kts 209°
2026-04-16 07:15 6.20717 125.16201 22989 ft 448 kts 210°
2026-04-16 07:15 6.17956 125.14729 23389 ft 447 kts 210°
2026-04-16 07:15 6.15204 125.13260 23632 ft 450 kts 210°
2026-04-16 07:15 6.12422 125.11774 23814 ft 454 kts 209°
2026-04-16 07:16 6.09525 125.10482 24082 ft 457 kts 199°
2026-04-16 07:16 6.06424 125.09786 24382 ft 459 kts 189°
2026-04-16 07:16 6.03221 125.09634 24632 ft 463 kts 179°
2026-04-16 07:16 6.00047 125.09982 24841 ft 466 kts 174°
2026-04-16 07:17 5.96819 125.10431 25062 ft 468 kts 173°
2026-04-16 07:17 5.93591 125.10891 25284 ft 470 kts 173°
2026-04-16 07:17 5.90330 125.11338 25493 ft 472 kts 174°
2026-04-16 07:17 5.87068 125.11762 25707 ft 473 kts 174°
2026-04-16 07:18 5.83788 125.12174 25921 ft 475 kts 174°
2026-04-16 07:18 5.80502 125.12580 26127 ft 477 kts 174°
2026-04-16 07:18 5.77206 125.12988 26343 ft 478 kts 174°
2026-04-16 07:18 5.73937 125.13394 26540 ft 479 kts 174°
2026-04-16 07:19 5.70619 125.13813 26744 ft 481 kts 174°
2026-04-16 07:19 5.67298 125.14234 26942 ft 482 kts 174°
2026-04-16 07:19 5.63958 125.14652 27121 ft 484 kts 174°
2026-04-16 07:19 5.60604 125.15049 27298 ft 486 kts 175°
2026-04-16 07:20 5.57233 125.15440 27481 ft 487 kts 174°
2026-04-16 07:20 5.53859 125.15833 27670 ft 488 kts 174°
2026-04-16 07:20 5.50525 125.16224 27848 ft 489 kts 174°
2026-04-16 07:20 5.47138 125.16631 28019 ft 491 kts 174°
2026-04-16 07:21 5.43740 125.17053 28181 ft 492 kts 174°
2026-04-16 07:21 5.40337 125.17481 28350 ft 494 kts 174°
2026-04-16 07:21 5.36915 125.17914 28516 ft 495 kts 174°
2026-04-16 07:21 5.33499 125.18345 28734 ft 494 kts 174°
2026-04-16 07:22 5.30085 125.18774 28995 ft 493 kts 174°
2026-04-16 07:22 5.26681 125.19201 29260 ft 493 kts 174°
2026-04-16 07:22 5.23277 125.19627 29514 ft 492 kts 174°
2026-04-16 07:22 5.19869 125.20053 29746 ft 492 kts 174°
2026-04-16 07:23 5.16509 125.20472 29989 ft 492 kts 174°
2026-04-16 07:23 5.13108 125.20897 30221 ft 491 kts 174°
2026-04-16 07:23 5.09717 125.21320 30477 ft 490 kts 174°
2026-04-16 07:23 5.06337 125.21742 30738 ft 489 kts 174°
2026-04-16 07:24 5.02962 125.22164 30990 ft 488 kts 174°
2026-04-16 07:24 4.99580 125.22586 31242 ft 488 kts 173°
2026-04-16 07:24 4.96215 125.23006 31506 ft 487 kts 174°
2026-04-16 07:24 4.92858 125.23425 31780 ft 486 kts 174°
2026-04-16 07:25 4.89540 125.23839 32041 ft 485 kts 174°
2026-04-16 07:25 4.86186 125.24257 32294 ft 485 kts 173°
2026-04-16 07:25 4.82838 125.24675 32574 ft 484 kts 173°
2026-04-16 07:25 4.79500 125.25092 32868 ft 483 kts 173°
2026-04-16 07:26 4.76165 125.25508 33172 ft 481 kts 173°
2026-04-16 07:26 4.72840 125.25922 33467 ft 480 kts 173°
2026-04-16 07:26 4.69513 125.26337 33741 ft 480 kts 173°
2026-04-16 07:26 4.66247 125.26745 33988 ft 480 kts 174°
2026-04-16 07:27 4.62922 125.27159 34157 ft 481 kts 174°
2026-04-16 07:27 4.59588 125.27575 34342 ft 482 kts 174°
2026-04-16 07:27 4.56262 125.27990 34615 ft 481 kts 174°
2026-04-16 07:27 4.52940 125.28404 34865 ft 480 kts 174°
2026-04-16 07:28 4.49612 125.28819 34846 ft 482 kts 174°
2026-04-16 07:28 4.44090 125.29507 34867 ft 479 kts 174°
2026-04-16 07:29 4.36415 125.30464 34868 ft 477 kts 174°
2026-04-16 07:29 4.29839 125.31283 34866 ft 475 kts 174°
2026-04-16 07:30 4.24377 125.31964 34871 ft 475 kts 174°
2026-04-16 07:30 4.17808 125.32782 34873 ft 476 kts 174°
2026-04-16 07:31 4.11221 125.33602 34868 ft 477 kts 174°
2026-04-16 07:31 4.04621 125.34424 34870 ft 478 kts 174°
2026-04-16 07:32 3.98035 125.34552 34872 ft 476 kts 189°
2026-04-16 07:32 3.91574 125.33108 34866 ft 476 kts 196°
2026-04-16 07:33 3.85132 125.31478 34870 ft 477 kts 196°
2026-04-16 07:33 3.78719 125.29892 34870 ft 478 kts 195°
2026-04-16 07:34 3.72252 125.28329 34867 ft 478 kts 195°
2026-04-16 07:34 3.65779 125.26777 34868 ft 478 kts 195°
2026-04-16 07:35 3.59318 125.25227 34869 ft 477 kts 195°
2026-04-16 07:35 3.52888 125.23684 34863 ft 477 kts 195°
2026-04-16 07:36 3.46441 125.22137 34862 ft 476 kts 195°
2026-04-16 07:36 3.39982 125.20586 34868 ft 476 kts 195°
2026-04-16 07:37 3.33539 125.19039 34869 ft 476 kts 195°
2026-04-16 07:37 3.27103 125.17494 34873 ft 476 kts 195°
2026-04-16 07:38 3.20662 125.15949 34874 ft 475 kts 195°
2026-04-16 07:38 3.14267 125.14414 34863 ft 475 kts 195°
2026-04-16 07:39 3.07833 125.12871 34869 ft 475 kts 195°
2026-04-16 07:39 3.01398 125.11327 34867 ft 475 kts 195°
2026-04-16 07:40 2.94973 125.09786 34868 ft 475 kts 195°
2026-04-16 07:40 2.88544 125.08244 34870 ft 475 kts 195°
2026-04-16 07:41 2.82122 125.06704 34862 ft 474 kts 195°
2026-04-16 07:41 2.75727 125.05170 34865 ft 474 kts 195°
2026-04-16 07:42 2.69299 125.03629 34845 ft 475 kts 195°
2026-04-16 07:42 2.66063 125.02853 34596 ft 477 kts 195°
2026-04-16 07:42 2.62844 125.02081 34374 ft 475 kts 195°
2026-04-16 07:42 2.59635 125.01313 34148 ft 474 kts 196°
2026-04-16 07:43 2.56422 125.00543 33932 ft 475 kts 196°
2026-04-16 07:43 2.53252 124.99782 33693 ft 475 kts 196°
2026-04-16 07:43 2.50031 124.99010 33440 ft 476 kts 196°
2026-04-16 07:43 2.46810 124.98238 33189 ft 477 kts 196°
2026-04-16 07:44 2.43580 124.97464 32939 ft 477 kts 196°
2026-04-16 07:44 2.40350 124.96690 32694 ft 478 kts 196°
2026-04-16 07:44 2.37124 124.95917 31982 ft 478 kts 195°
2026-04-16 07:44 2.33873 124.95138 31220 ft 478 kts 195°
2026-04-16 07:45 2.30631 124.94361 30386 ft 480 kts 195°
2026-04-16 07:45 2.27366 124.93578 29436 ft 483 kts 195°
2026-04-16 07:45 2.24086 124.92792 28431 ft 485 kts 195°
2026-04-16 07:45 2.20797 124.92004 27429 ft 487 kts 195°
2026-04-16 07:46 2.17497 124.91214 26417 ft 489 kts 195°
2026-04-16 07:46 2.14241 124.90434 25678 ft 484 kts 195°
2026-04-16 07:46 2.10974 124.89652 24917 ft 481 kts 195°
2026-04-16 07:46 2.07730 124.88875 24171 ft 477 kts 195°
2026-04-16 07:47 2.04499 124.88182 23416 ft 475 kts 189°
2026-04-16 07:47 2.01191 124.88236 22604 ft 475 kts 175°
2026-04-16 07:47 1.97926 124.88630 21843 ft 469 kts 175°
2026-04-16 07:47 1.94704 124.88998 21097 ft 464 kts 176°
2026-04-16 07:48 1.91520 124.89337 20376 ft 458 kts 176°
2026-04-16 07:48 1.88362 124.89653 19654 ft 453 kts 176°
2026-04-16 07:48 1.85236 124.89955 18945 ft 449 kts 176°
2026-04-16 07:48 1.82155 124.90248 18478 ft 438 kts 177°
2026-04-16 07:49 1.79116 124.90536 17525 ft 433 kts 177°
2026-04-16 07:49 1.76167 124.90817 16753 ft 419 kts 176°
2026-04-16 07:49 1.73282 124.91092 16090 ft 415 kts 176°
2026-04-16 07:49 1.70459 124.91361 15423 ft 407 kts 176°
2026-04-16 07:50 1.67644 124.91629 14774 ft 406 kts 176°
2026-04-16 07:50 1.64850 124.91896 14098 ft 399 kts 176°
2026-04-16 07:50 1.62086 124.92160 13457 ft 397 kts 176°
2026-04-16 07:50 1.59342 124.92423 13203 ft 393 kts 176°
2026-04-16 07:51 1.56677 124.92679 13055 ft 376 kts 176°
2026-04-16 07:51 1.54115 124.92936 12962 ft 366 kts 176°
2026-04-16 07:51 1.51631 124.93221 12933 ft 352 kts 175°
2026-04-16 07:51 1.49234 124.93509 12923 ft 342 kts 175°
2026-04-16 07:52 1.46903 124.93788 12930 ft 332 kts 175°
2026-04-16 07:52 1.44633 124.94057 12931 ft 325 kts 175°
2026-04-16 07:52 1.42410 124.94318 12923 ft 317 kts 176°
2026-04-16 07:52 1.40271 124.94568 12919 ft 310 kts 176°
2026-04-16 07:53 1.38163 124.94815 12916 ft 300 kts 176°
2026-04-16 07:53 1.36111 124.95057 12918 ft 292 kts 176°
2026-04-16 07:53 1.34156 124.95286 12920 ft 273 kts 176°
2026-04-16 07:53 1.32327 124.95498 12896 ft 255 kts 178°
2026-04-16 07:54 1.30585 124.95310 12229 ft 256 kts 208°
2026-04-16 07:54 1.29215 124.94174 11591 ft 261 kts 234°
2026-04-16 07:54 1.28477 124.92520 10996 ft 264 kts 260°
2026-04-16 07:54 1.28682 124.90794 10851 ft 252 kts 295°
2026-04-16 07:55 1.29885 124.89603 10734 ft 244 kts 334°
2026-04-16 07:55 1.31524 124.89467 10624 ft 237 kts 13°
2026-04-16 07:55 1.33096 124.89974 10144 ft 243 kts 14°
2026-04-16 07:55 1.34798 124.90381 9330 ft 259 kts
2026-04-16 07:56 1.36614 124.90710 8498 ft 271 kts 13°
2026-04-16 07:56 1.38411 124.91254 7693 ft 275 kts 13°
2026-04-16 07:56 1.40275 124.91686 6889 ft 276 kts
2026-04-16 07:56 1.42170 124.91974 6102 ft 275 kts
2026-04-16 07:57 1.44083 124.92167 5273 ft 276 kts
2026-04-16 07:57 1.45998 124.92297 4665 ft 274 kts
2026-04-16 07:57 1.47862 124.92389 4477 ft 262 kts 360°
2026-04-16 07:57 1.49658 124.92459 4384 ft 255 kts 360°
2026-04-16 07:58 1.51413 124.92518 4352 ft 250 kts 358°
2026-04-16 07:58 1.53114 124.92574 4521 ft 238 kts
2026-04-16 07:58 1.54755 124.92631 4650 ft 239 kts 358°
2026-04-16 07:58 1.56439 124.92668 5142 ft 245 kts 358°
2026-04-16 07:59 1.58215 124.92694 5255 ft 260 kts 358°
2026-04-16 07:59 1.59879 124.92478 5910 ft 218 kts 343°
2026-04-16 07:59 1.61261 124.92167 6413 ft 212 kts 345°
2026-04-16 07:59 1.62817 124.91838 6714 ft 240 kts 345°
2026-04-16 08:00 1.64519 124.91450 7108 ft 266 kts 345°
2026-04-16 08:00 1.66407 124.91065 7630 ft 284 kts 347°
2026-04-16 08:00 1.68268 124.90407 7930 ft 283 kts 323°
2026-04-16 08:00 1.69536 124.88953 7987 ft 279 kts 293°
2026-04-16 08:01 1.70006 124.87091 7997 ft 277 kts 272°
2026-04-16 08:01 1.69960 124.85166 7999 ft 276 kts 266°
2026-04-16 08:01 1.69851 124.83271 7988 ft 277 kts 266°
2026-04-16 08:01 1.69749 124.81350 7983 ft 277 kts 266°
2026-04-16 08:02 1.69648 124.79429 7982 ft 276 kts 264°
2026-04-16 08:02 1.67758 124.76224 7995 ft 277 kts 217°
2026-04-16 08:02 1.66035 124.75340 7995 ft 279 kts 204°
2026-04-16 08:03 1.64222 124.74629 7990 ft 281 kts 202°
2026-04-16 08:03 1.62392 124.73935 7993 ft 281 kts 202°
2026-04-16 08:03 1.60562 124.73238 7985 ft 282 kts 202°
2026-04-16 08:03 1.58728 124.72531 7986 ft 282 kts 203°
2026-04-16 08:04 1.56919 124.71828 7986 ft 282 kts 203°
2026-04-16 08:04 1.55091 124.71114 7987 ft 281 kts 203°
2026-04-16 08:04 1.53268 124.70399 7986 ft 281 kts 203°
2026-04-16 08:04 1.51445 124.69683 7982 ft 281 kts 203°
2026-04-16 08:05 1.49621 124.68966 7992 ft 281 kts 203°
2026-04-16 08:05 1.47798 124.68249 7983 ft 280 kts 203°
2026-04-16 08:05 1.45917 124.67741 7973 ft 283 kts 186°
2026-04-16 08:05 1.43956 124.67946 7984 ft 286 kts 166°
2026-04-16 08:06 1.42100 124.68627 7990 ft 288 kts 160°
2026-04-16 08:06 1.40244 124.69386 7986 ft 289 kts 160°
2026-04-16 08:06 1.38385 124.70152 7986 ft 289 kts 160°
2026-04-16 08:06 1.36518 124.70914 7982 ft 290 kts 160°
2026-04-16 08:07 1.34646 124.71670 7979 ft 290 kts 160°
2026-04-16 08:07 1.32769 124.72422 7974 ft 290 kts 161°
2026-04-16 08:07 1.30894 124.73171 7980 ft 290 kts 161°
2026-04-16 08:07 1.29028 124.73945 7982 ft 291 kts 155°
2026-04-16 08:08 1.27483 124.75252 7978 ft 295 kts 127°
2026-04-16 08:08 1.26707 124.77121 7950 ft 287 kts 99°
2026-04-16 08:08 1.26658 124.79018 7852 ft 266 kts 89°
2026-04-16 08:08 1.26724 124.80807 7715 ft 249 kts 89°
2026-04-16 08:09 1.26783 124.82500 7606 ft 238 kts 89°
2026-04-16 08:09 1.26832 124.84118 7440 ft 230 kts 89°
2026-04-16 08:09 1.26872 124.85742 6979 ft 237 kts 90°
2026-04-16 08:09 1.26861 124.87407 6532 ft 241 kts 92°
2026-04-16 08:10 1.26839 124.89095 6053 ft 246 kts 91°
2026-04-16 08:10 1.27113 124.90783 5542 ft 249 kts 60°
2026-04-16 08:10 1.28321 124.91902 5236 ft 238 kts 18°
2026-04-16 08:10 1.29894 124.92050 5028 ft 222 kts 352°
2026-04-16 08:11 1.31438 124.91991 4807 ft 216 kts 355°
2026-04-16 08:11 1.32909 124.91990 4539 ft 212 kts 354°
2026-04-16 08:11 1.34367 124.92014 4326 ft 207 kts 358°
2026-04-16 08:11 1.35783 124.92027 4151 ft 202 kts 355°
2026-04-16 08:12 1.37176 124.92053 3891 ft 198 kts 359°
2026-04-16 08:12 1.38549 124.92096 3619 ft 195 kts
2026-04-16 08:12 1.39904 124.92143 3340 ft 194 kts 360°
2026-04-16 08:12 1.41247 124.92187 3059 ft 191 kts
2026-04-16 08:13 1.42565 124.92229 2769 ft 188 kts
2026-04-16 08:13 1.43856 124.92272 2493 ft 185 kts
2026-04-16 08:13 1.45136 124.92314 2230 ft 182 kts
2026-04-16 08:13 1.46338 124.92353 1984 ft 169 kts
2026-04-16 08:14 1.47471 124.92390 1742 ft 156 kts
2026-04-16 08:14 1.48515 124.92424 1492 ft 145 kts
2026-04-16 08:14 1.49488 124.92456 1327 ft 136 kts
2026-04-16 08:14 1.50444 124.92486 1100 ft 139 kts
2026-04-16 08:15 1.51424 124.92519 914 ft 141 kts
2026-04-16 08:15 1.52397 124.92551 720 ft 135 kts
2026-04-16 08:15 1.53358 124.92577 509 ft 137 kts
2026-04-16 08:15 1.54269 124.92609 345 ft 122 kts
2026-04-16 08:16 1.55008 124.92634 337 ft 86 kts
2026-04-16 08:16 1.55387 124.92646 334 ft 30 kts
2026-04-16 08:16 1.55574 124.92651 333 ft 20 kts
2026-04-16 08:16 1.55658 124.92623 333 ft 6 kts 300°
2026-04-16 08:17 1.55670 124.92575 335 ft 8 kts 265°
2026-04-16 08:17 1.55669 124.92554 335 ft 5 kts 268°
2026-04-16 08:17 1.55658 124.92503 332 ft 12 kts 231°
2026-04-16 08:17 1.55493 124.92484 335 ft 24 kts 181°
2026-04-16 08:18 1.55326 124.92480 334 ft 23 kts 182°
2026-04-16 08:19 1.54402 124.92423 334 ft 8 kts 245°
2026-04-16 08:20 1.54396 124.92382 335 ft 0 kts 273°
2026-04-16 08:20 1.54397 124.92370 335 ft 5 kts 273°
2026-04-16 08:20 1.54398 124.92348 335 ft 0 kts 273°
2026-04-16 08:20 1.54398 124.92346 335 ft 1 kts 271°
2026-04-16 08:21 1.54398 124.92344 335 ft 0 kts 271°